QPF
0.00 0.00 0.00 0.00 0.00 0.00 0.00 0.00 0.00 0.00 0.03 0.08 0.12 0.08 0.05 0.04 0.02 0.00 0.02 0.07 0.03 0.01 0.01 0.00 0.01 0.02 0.10 0.18 0.12 0.04 0.04 0.12 0.14 0.23 0.16 0.04 0.04 0.05 0.07 0.06 0.06 0.08 0.14 0.26 0.24 0.10 0.01 0.00 0.00 0.00 0.00 0.00 0.00 0.00
0.00 0.00 0.00 0.00 0.00 0.00 0.00 0.00 0.00 0.00 0.06 0.07 0.10 0.16 0.12 0.07 0.06 0.02 0.01 0.06 0.04 0.03 0.02 0.01 0.00 0.00 0.01 0.09 0.19 0.15 0.11 0.13 0.17 0.27 0.20 0.07 0.01 0.02 0.02 0.01 0.01 0.01 0.02 0.02 0.04 0.04 0.00 0.00 0.00 0.00 0.00 0.00 0.00 0.00
0.00 0.00 0.00 0.00 0.00 0.00 0.00 0.00 0.00 0.00 0.00 0.04 0.10 0.18 0.24 0.17 0.13 0.04 0.02 0.05 0.05 0.04 0.06 0.04 0.01 0.00 0.00 0.02 0.16 0.24 0.22 0.17 0.14 0.15 0.16 0.08 0.05 0.00 0.00 0.00 0.00 0.00 0.00 0.01 0.00 0.00 0.00 0.00 0.00 0.00 0.00 0.00 0.00 0.00
0.00 0.00 0.00 0.00 0.00 0.00 0.00 0.00 0.00 0.03 0.01 0.01 0.07 0.08 0.13 0.13 0.12 0.07 0.03 0.05 0.04 0.01 0.05 0.04 0.00 0.00 0.00 0.00 0.05 0.21 0.17 0.16 0.17 0.17 0.10 0.18 0.08 0.03 0.01 0.00 0.00 0.00 0.00 0.02 0.01 0.00 0.00 0.00 0.00 0.00 0.00 0.00 0.00 0.00
0.00 0.00 0.00 0.00 0.00 0.00 0.00 0.00 0.00 0.03 0.02 0.02 0.02 0.02 0.01 0.03 0.06 0.08 0.05 0.05 0.04 0.02 0.04 0.01 0.00 0.00 0.00 0.00 0.02 0.07 0.24 0.19 0.23 0.26 0.28 0.20 0.20 0.15 0.07 0.05 0.05 0.01 0.00 0.00 0.01 0.00 0.00 0.00 0.00 0.00 0.00 0.00 0.00 0.00
0.00 0.00 0.00 0.00 0.00 0.00 0.00 0.00 0.00 0.01 0.05 0.05 0.02 0.03 0.04 0.04 0.04 0.03 0.05 0.02 0.06 0.11 0.04 0.07 0.02 0.01 0.01 0.02 0.07 0.10 0.29 0.27 0.13 0.15 0.13 0.15 0.16 0.20 0.20 0.17 0.08 0.02 0.00 0.00 0.00 0.00 0.00 0.00 0.00 0.00 0.00 0.00 0.00 0.00
0.00 0.00 0.00 0.00 0.00 0.00 0.00 0.00 0.00 0.00 0.02 0.08 0.06 0.02 0.05 0.11 0.09 0.14 0.07 0.01 0.02 0.14 0.17 0.06 0.02 0.03 0.08 0.15 0.15 0.16 0.17 0.24 0.09 0.03 0.05 0.04 0.04 0.10 0.12 0.05 0.04 0.02 0.00 0.00 0.00 0.00 0.00 0.00 0.00 0.00 0.00 0.00 0.00 0.00
0.00 0.00 0.00 0.00 0.00 0.00 0.00 0.00 0.00 0.00 0.00 0.00 0.04 0.08 0.13 0.17 0.16 0.10 0.02 0.02 0.03 0.09 0.12 0.10 0.04 0.04 0.12 0.19 0.23 0.20 0.22 0.19 0.16 0.15 0.09 0.01 0.01 0.04 0.05 0.01 0.00 0.00 0.00 0.00 0.00 0.00 0.00 0.00 0.00 0.00 0.00 0.00 0.00 0.00
0.00 0.00 0.00 0.00 0.00 0.00 0.00 0.00 0.00 0.00 0.00 0.00 0.00 0.02 0.09 0.14 0.15 0.17 0.09 0.07 0.09 0.14 0.13 0.05 0.03 0.03 0.06 0.14 0.17 0.15 0.14 0.17 0.13 0.11 0.11 0.06 0.05 0.01 0.00 0.00 0.00 0.00 0.00 0.00 0.00 0.00 0.00 0.00 0.00 0.00 0.00 0.00 0.00 0.00
0.00 0.00 0.00 0.00 0.00 0.00 0.00 0.00 0.00 0.00 0.00 0.00 0.00 0.00 0.01 0.02 0.01 0.03 0.06 0.07 0.10 0.10 0.06 0.09 0.03 0.04 0.06 0.11 0.13 0.10 0.07 0.08 0.07 0.03 0.01 0.01 0.01 0.00 0.00 0.00 0.00 0.00 0.00 0.00 0.00 0.00 0.00 0.00 0.00 0.00 0.00 0.00 0.00 0.00
0.00 0.00 0.00 0.00 0.00 0.00 0.00 0.00 0.00 0.00 0.00 0.00 0.00 0.00 0.00 0.00 0.00 0.03 0.02 0.05 0.04 0.05 0.03 0.05 0.02 0.04 0.04 0.07 0.08 0.04 0.05 0.02 0.01 0.00 0.00 0.00 0.00 0.00 0.00 0.00 0.00 0.00 0.00 0.00 0.00 0.00 0.00 0.00 0.00 0.00 0.00 0.00 0.00 0.00
0.00 0.00 0.00 0.00 0.00 0.00 0.00 0.00 0.00 0.00 0.00 0.00 0.00 0.00 0.01 0.01 0.01 0.01 0.00 0.00 0.02 0.03 0.01 0.03 0.02 0.01 0.01 0.01 0.02 0.02 0.01 0.02 0.02 0.00 0.00 0.00 0.00 0.00 0.00 0.00 0.00 0.00 0.00 0.00 0.00 0.00 0.00 0.00 0.00 0.00 0.00 0.00 0.00 0.00
0.00 0.00 0.00 0.00 0.00 0.00 0.00 0.00 0.00 0.00 0.00 0.01 0.00 0.00 0.00 0.00 0.00 0.00 0.01 0.01 0.00 0.01 0.01 0.01 0.01 0.01 0.01 0.01 0.00 0.00 0.00 0.01 0.00 0.00 0.00 0.00 0.00 0.00 0.00 0.00 0.00 0.00 0.00 0.00 0.00 0.00 0.00 0.00 0.00 0.00 0.00 0.00 0.00 0.00
0.00 0.00 0.00 0.00 0.00 0.00 0.00 0.00 0.00 0.00 0.01 0.00 0.00 0.00 0.00 0.00 0.00 0.00 0.01 0.02 0.00 0.01 0.01 0.01 0.00 0.01 0.00 0.00 0.00 0.00 0.00 0.00 0.00 0.00 0.00 0.00 0.00 0.00 0.00 0.00 0.00 0.00 0.00 0.00 0.00 0.00 0.00 0.00 0.00 0.00 0.00 0.00 0.00 0.00
0.00 0.00 0.00 0.00 0.00 0.00 0.00 0.00 0.00 0.00 0.00 0.00 0.00 0.00 0.00 0.00 0.00 0.00 0.00 0.00 0.02 0.03 0.01 0.00 0.00 0.00 0.00 0.00 0.00 0.00 0.00 0.00 0.00 0.00 0.00 0.00 0.00 0.00 0.00 0.00 0.00 0.00 0.00 0.00 0.00 0.00 0.00 0.00 0.00 0.00 0.00 0.00 0.00 0.00
0.00 0.00 0.00 0.00 0.00 0.00 0.00 0.00 0.00 0.00 0.00 0.00 0.00 0.01 0.01 0.01 0.00 0.00 0.00 0.01 0.02 0.01 0.01 0.00 0.00 0.00 0.00 0.00 0.00 0.00 0.00 0.00 0.00 0.00 0.00 0.00 0.00 0.00 0.00 0.00 0.00 0.00 0.00 0.00 0.00 0.00 0.00 0.00 0.00 0.00 0.00 0.00 0.00 0.00
0.00 0.00 0.00 0.00 0.00 0.00 0.00 0.00 0.00 0.00 0.00 0.00 0.00 0.00 0.01 0.02 0.00 0.00 0.02 0.03 0.02 0.02 0.01 0.01 0.00 0.00 0.00 0.00 0.00 0.00 0.00 0.00 0.00 0.00 0.00 0.00 0.00 0.00 0.00 0.00 0.00 0.00 0.00 0.00 0.00 0.00 0.00 0.00 0.00 0.00 0.00 0.00 0.00 0.00
0.00 0.00 0.00 0.00 0.00 0.00 0.00 0.00 0.00 0.00 0.00 0.00 0.00 0.00 0.00 0.00 0.00 0.00 0.01 0.03 0.02 0.03 0.02 0.02 0.01 0.01 0.00 0.00 0.01 0.01 0.00 0.00 0.00 0.00 0.00 0.00 0.00 0.00 0.00 0.00 0.00 0.00 0.00 0.00 0.00 0.00 0.00 0.00 0.00 0.00 0.00 0.00 0.00 0.00
0.00 0.00 0.00 0.00 0.00 0.00 0.00 0.00 0.00 0.00 0.00 0.00 0.00 0.00 0.00 0.00 0.00 0.00 0.00 0.00 0.00 0.00 0.01 0.01 0.00 0.00 0.01 0.02 0.03 0.00 0.00 0.00 0.00 0.00 0.00 0.00 0.00 0.00 0.00 0.00 0.00 0.00 0.00 0.00 0.00 0.00 0.00 0.00 0.00 0.00 0.00 0.00 0.00 0.00
0.00 0.00 0.00 0.00 0.00 0.00 0.00 0.00 0.00 0.00 0.00 0.00 0.00 0.00 0.00 0.00 0.00 0.00 0.00 0.00 0.00 0.00 0.00 0.00 0.00 0.01 0.03 0.02 0.01 0.00 0.00 0.00 0.00 0.00 0.00 0.00 0.00 0.00 0.00 0.00 0.00 0.00 0.00 0.00 0.00 0.00 0.00 0.00 0.00 0.00 0.00 0.00 0.00 0.00
0.00 0.00 0.00 0.00 0.00 0.00 0.00 0.00 0.00 0.00 0.00 0.00 0.00 0.00 0.00 0.00 0.00 0.00 0.00 0.00 0.00 0.00 0.00 0.00 0.01 0.01 0.01 0.03 0.03 0.02 0.00 0.00 0.00 0.00 0.00 0.00 0.00 0.00 0.00 0.00 0.00 0.00 0.00 0.00 0.00 0.00 0.00 0.00 0.00 0.00 0.00 0.00 0.00 0.00
0.00 0.00 0.00 0.00 0.00 0.00 0.00 0.00 0.00 0.00 0.00 0.00 0.00 0.00 0.00 0.01 0.00 0.00 0.00 0.00 0.00 0.00 0.00 0.00 0.00 0.01 0.02 0.01 0.04 0.01 0.00 0.00 0.00 0.00 0.00 0.00 0.00 0.00 0.00 0.00 0.00 0.00 0.00 0.00 0.00 0.00 0.00 0.00 0.00 0.00 0.00 0.00 0.00 0.00
0.00 0.00 0.00 0.00 0.00 0.00 0.00 0.00 0.00 0.00 0.00 0.00 0.00 0.00 0.00 0.00 0.02 0.03 0.03 0.00 0.00 0.00 0.00 0.00 0.01 0.00 0.04 0.05 0.04 0.00 0.00 0.00 0.00 0.00 0.00 0.00 0.00 0.00 0.00 0.00 0.00 0.00 0.00 0.00 0.00 0.00 0.00 0.00 0.00 0.00 0.00 0.00 0.00 0.00
0.00 0.00 0.00 0.00 0.00 0.01 0.00 0.00 0.00 0.00 0.00 0.00 0.00 0.00 0.00 0.01 0.01 0.01 0.00 0.00 0.01 0.02 0.03 0.03 0.04 0.02 0.03 0.07 0.03 0.00 0.00 0.00 0.01 0.00 0.00 0.00 0.00 0.00 0.00 0.00 0.00 0.00 0.00 0.00 0.00 0.00 0.00 0.00 0.00 0.00 0.00 0.00 0.00 0.00
0.00 0.00 0.00 0.00 0.00 0.00 0.00 0.00 0.01 0.01 0.01 0.01 0.01 0.00 0.01 0.03 0.01 0.00 0.00 0.01 0.03 0.03 0.01 0.01 0.01 0.02 0.03 0.05 0.08 0.04 0.00 0.00 0.00 0.00 0.00 0.00 0.00 0.00 0.00 0.00 0.00 0.00 0.00 0.00 0.00 0.00 0.00 0.00 0.00 0.00 0.00 0.00 0.00 0.00
0.00 0.00 0.00 0.00 0.00 0.00 0.01 0.00 0.00 0.00 0.00 0.00 0.00 0.00 0.01 0.02 0.02 0.01 0.02 0.04 0.02 0.01 0.00 0.00 0.00 0.00 0.01 0.04 0.06 0.09 0.02 0.01 0.02 0.01 0.00 0.00 0.00 0.00 0.00 0.00 0.00 0.00 0.00 0.00 0.00 0.00 0.00 0.00 0.00 0.00 0.00 0.00 0.00 0.00
0.00 0.00 0.00 0.00 0.00 0.00 0.00 0.00 0.00 0.00 0.00 0.00 0.00 0.00 0.01 0.00 0.01 0.02 0.01 0.02 0.01 0.01 0.00 0.00 0.00 0.00 0.01 0.01 0.01 0.07 0.16 0.06 0.04 0.02 0.01 0.00 0.00 0.00 0.00 0.00 0.00 0.00 0.00 0.00 0.00 0.00 0.00 0.00 0.00 0.00 0.00 0.00 0.00 0.00
0.00 0.00 0.00 0.00 0.00 0.00 0.00 0.00 0.00 0.00 0.00 0.00 0.00 0.00 0.01 0.01 0.01 0.01 0.01 0.00 0.00 0.00 0.00 0.00 0.00 0.00 0.00 0.00 0.00 0.01 0.02 0.03 0.02 0.01 0.02 0.01 0.00 0.00 0.00 0.00 0.00 0.00 0.00 0.00 0.00 0.00 0.00 0.00 0.00 0.00 0.00 0.00 0.00 0.00
0.00 0.00 0.00 0.00 0.00 0.00 0.00 0.00 0.00 0.00 0.00 0.00 0.00 0.00 0.01 0.01 0.00 0.00 0.00 0.00 0.00 0.00 0.00 0.00 0.00 0.00 0.00 0.00 0.00 0.00 0.00 0.02 0.05 0.07 0.05 0.02 0.00 0.00 0.00 0.00 0.00 0.00 0.00 0.00 0.00 0.00 0.00 0.00 0.00 0.00 0.00 0.00 0.00 0.00
0.00 0.00 0.00 0.00 0.00 0.00 0.00 0.00 0.00 0.00 0.00 0.00 0.00 0.00 0.00 0.00 0.00 0.00 0.00 0.00 0.00 0.00 0.00 0.00 0.00 0.00 0.00 0.00 0.00 0.00 0.01 0.01 0.02 0.05 0.07 0.06 0.02 0.00 0.00 0.00 0.00 0.00 0.00 0.00 0.00 0.00 0.00 0.00 0.00 0.00 0.00 0.00 0.00 0.00
0.00 0.00 0.00 0.00 0.00 0.00 0.00 0.00 0.00 0.00 0.00 0.00 0.00 0.00 0.00 0.00 0.00 0.00 0.00 0.00 0.00 0.00 0.00 0.00 0.00 0.00 0.00 0.00 0.01 0.01 0.00 0.00 0.01 0.02 0.02 0.02 0.04 0.04 0.02 0.00 0.00 0.00 0.00 0.00 0.00 0.00 0.00 0.00 0.00 0.00 0.00 0.00 0.00 0.00
0.00 0.00 0.00 0.00 0.00 0.00 0.00 0.00 0.00 0.00 0.00 0.00 0.00 0.00 0.00 0.00 0.00 0.00 0.00 0.00 0.00 0.00 0.00 0.00 0.00 0.00 0.00 0.01 0.01 0.02 0.01 0.01 0.00 0.00 0.00 0.01 0.01 0.02 0.02 0.01 0.00 0.00 0.00 0.00 0.00 0.00 0.00 0.00 0.00 0.00 0.00 0.00 0.00 0.00
0.02 0.01 0.01 0.00 0.00 0.00 0.00 0.00 0.00 0.00 0.00 0.00 0.00 0.00 0.00 0.00 0.00 0.00 0.00 0.00 0.00 0.00 0.00 0.00 0.00 0.00 0.00 0.00 0.00 0.02 0.04 0.04 0.02 0.01 0.01 0.02 0.02 0.02 0.03 0.03 0.02 0.02 0.01 0.01 0.00 0.00 0.00 0.00 0.00 0.00 0.00 0.00 0.00 0.00
MSLP
1002.24 1001.55 1000.69 999.88 998.89 997.86 996.73 995.56 994.61 993.60 992.71 992.72 993.29 994.08 994.70 995.56 996.40 997.42 998.19 998.55 999.39 1000.18 1000.39 1000.33 1000.24 1000.68 1001.26 1001.71 1001.52 1000.53 999.23 998.42 998.02 998.63 999.39 1000.05 1000.78 1000.66 1000.89 1000.17 1000.32 1001.63 1002.24 1002.79 1003.27 1002.67 1001.26 998.80 998.71 999.33 1000.06 999.93 1000.08 1000.56
1002.31 1001.70 1000.87 1000.00 999.16 998.15 997.11 996.02 994.80 993.84 992.92 993.13 993.76 994.40 994.90 995.61 996.45 997.62 998.59 998.83 999.50 1000.47 1001.24 1001.22 1001.00 1000.82 1000.91 1001.27 1001.97 1001.67 1000.08 999.63 998.16 997.67 998.47 999.64 1000.28 999.98 999.77 1000.05 999.59 1000.11 999.62 1001.26 1001.77 1001.05 999.53 998.55 998.34 998.69 998.91 999.77 1000.40 1000.75
1002.43 1001.80 1001.12 1000.24 999.36 998.34 997.39 996.35 995.11 993.53 993.19 993.65 994.19 994.71 995.14 995.79 996.57 997.55 998.36 999.05 999.95 1001.00 1001.34 1001.33 1001.13 1001.00 1001.40 1001.65 1001.81 1002.13 1001.25 999.98 998.64 998.05 997.90 999.00 999.44 999.19 998.88 998.59 998.59 998.84 998.59 999.81 1000.44 999.78 999.15 998.62 998.56 998.77 998.95 999.72 1000.47 1001.09
1002.59 1001.94 1001.29 1000.53 999.70 998.78 997.85 996.98 996.08 994.70 994.14 994.38 994.77 995.25 995.72 996.09 996.93 998.08 998.68 999.10 999.94 1000.88 1001.24 1000.36 1000.60 1000.97 1000.85 1001.57 1001.42 1001.00 1000.39 1000.37 999.34 998.30 998.07 998.40 998.74 998.49 998.15 997.29 997.61 997.48 998.28 998.59 998.74 998.65 998.75 998.57 998.47 999.18 999.78 1000.31 1001.10 1001.84
1002.77 1002.19 1001.41 1000.81 1000.07 999.31 998.48 997.60 997.03 996.21 995.57 995.26 995.35 995.71 996.18 996.82 997.56 998.62 999.21 999.62 999.55 1000.20 1000.48 1000.10 1000.06 1000.21 1000.48 1000.66 1000.89 1000.28 1000.53 1000.51 1000.06 999.13 999.12 998.90 998.69 998.80 998.61 997.92 997.29 996.48 996.94 997.45 997.42 997.24 997.77 998.87 999.01 999.46 1000.02 1000.76 1001.55 1002.24
1002.93 1002.41 1001.77 1001.03 1000.35 999.66 999.02 998.28 997.73 997.03 996.42 996.25 995.79 995.91 996.38 996.92 998.08 998.92 999.74 999.92 999.59 999.92 1000.78 1000.61 1000.03 999.67 1000.12 1000.17 1000.15 999.39 999.23 999.16 999.21 999.00 998.60 998.14 997.99 998.51 998.83 998.08 997.02 996.28 996.18 995.76 996.10 996.66 997.38 998.67 999.30 999.51 1000.10 1000.84 1001.64 1002.49
1003.11 1002.60 1002.08 1001.36 1000.66 999.99 999.47 998.85 998.24 997.97 997.40 996.91 996.84 996.36 996.59 997.36 998.29 998.97 999.35 999.29 999.46 999.99 1000.16 1000.29 1000.05 1000.05 1000.08 999.63 999.20 999.28 998.37 998.40 998.06 998.18 998.04 998.03 998.63 998.55 998.54 997.91 996.84 996.44 996.17 996.03 996.43 996.71 998.23 998.32 999.28 999.91 1000.54 1001.22 1001.99 1002.84
1003.20 1002.72 1002.36 1001.81 1000.95 1000.27 999.66 999.22 998.72 998.45 998.23 997.78 997.85 997.81 997.87 998.21 998.95 999.29 999.45 999.25 999.19 999.71 1000.01 999.83 999.60 999.93 999.65 999.49 999.55 999.53 998.52 998.69 997.96 998.14 998.33 998.23 998.44 998.63 998.05 996.94 996.28 996.36 996.51 996.50 996.74 997.03 997.69 998.69 999.61 1000.65 1001.46 1001.84 1002.84 1003.71
1003.51 1002.93 1002.42 1001.96 1001.31 1000.34 999.70 999.06 998.73 998.37 998.34 998.37 998.05 998.19 998.76 999.09 999.38 999.47 999.54 999.44 999.45 999.77 999.44 999.28 999.11 999.03 998.94 998.64 998.98 998.92 998.53 998.41 998.53 998.36 998.28 998.53 998.56 997.93 996.71 996.34 996.32 996.60 997.11 997.64 997.23 997.88 999.16 999.92 1000.46 1001.02 1001.48 1002.68 1003.70 1004.64
1003.75 1003.14 1002.48 1001.87 1001.34 1000.64 999.62 998.98 998.20 997.82 998.06 998.50 998.67 998.36 999.01 998.99 999.17 999.63 999.80 999.67 999.45 999.29 999.03 998.54 998.30 998.36 998.53 998.50 998.52 999.09 999.16 998.91 999.24 998.83 998.26 998.71 998.24 997.20 996.62 996.80 996.94 997.27 997.93 997.87 998.16 999.50 1000.13 1000.77 1001.23 1001.94 1002.65 1003.26 1004.01 1004.67
1003.73 1003.18 1002.60 1001.95 1001.34 1000.70 999.89 999.02 998.35 998.29 998.43 998.51 998.36 998.08 998.39 998.66 999.15 999.47 999.30 999.06 998.84 998.69 998.65 998.37 998.18 998.27 998.68 998.57 998.74 998.82 998.98 998.89 998.75 998.77 998.44 998.89 998.24 997.37 996.88 997.41 997.61 997.91 998.23 998.70 999.54 1000.17 1000.84 1001.45 1002.30 1003.04 1003.76 1004.29 1004.75 1005.27
1003.71 1003.09 1002.51 1001.92 1001.25 1000.63 999.96 999.20 998.73 998.27 997.99 998.16 998.37 997.78 998.45 998.70 998.68 998.55 998.47 998.24 998.50 998.19 998.18 998.13 998.30 998.46 998.67 998.53 998.88 998.97 998.64 998.41 998.64 998.64 998.58 998.70 998.44 997.55 997.04 998.03 998.54 999.05 999.65 1000.28 1001.10 1001.89 1002.47 1002.99 1003.63 1004.16 1004.77 1005.09 1005.66 1006.50
1003.50 1002.95 1002.35 1001.73 1001.11 1000.46 999.71 999.04 998.45 998.22 997.40 997.48 997.96 997.79 997.82 998.18 998.56 998.57 998.47 998.00 998.06 998.05 998.29 998.48 998.63 998.73 998.76 998.45 998.63 998.43 998.75 998.95 998.33 998.30 998.61 997.95 997.61 998.24 999.02 999.67 999.86 1000.28 1001.04 1001.92 1002.98 1003.68 1004.07 1004.46 1005.00 1005.29 1005.92 1006.40 1006.70 1007.50
1003.17 1002.61 1002.08 1001.51 1000.94 1000.20 999.44 998.66 998.02 997.82 997.75 997.54 997.85 998.55 998.82 999.28 999.84 999.97 999.71 999.16 998.56 998.29 998.40 998.27 998.42 998.44 998.45 998.40 998.26 998.56 998.98 998.75 998.71 998.68 998.43 998.40 998.61 999.24 999.77 999.97 1000.61 1001.90 1002.93 1003.73 1004.27 1004.59 1004.95 1005.53 1006.27 1006.65 1007.09 1007.38 1007.82 1008.44
1002.84 1002.18 1001.60 1001.25 1000.69 999.84 999.08 998.29 997.58 997.54 997.33 997.93 998.50 999.10 999.65 1000.04 1000.16 1000.13 999.98 999.59 998.62 998.19 998.40 998.13 997.93 997.87 998.22 998.65 998.69 999.23 999.43 999.23 999.00 998.76 998.79 998.77 999.09 999.72 1000.55 1001.51 1002.51 1003.25 1003.91 1004.40 1004.66 1005.14 1005.78 1006.32 1006.78 1007.38 1007.74 1008.01 1008.36 1008.72
1002.60 1001.61 1001.58 1001.03 1000.31 999.53 998.67 997.93 996.88 996.98 997.41 998.38 999.25 999.64 999.68 1000.02 1000.04 999.92 999.54 999.00 998.42 998.50 998.31 998.22 998.29 998.61 998.66 998.90 999.06 999.26 999.33 999.23 999.04 998.90 999.07 999.60 1000.30 1001.05 1001.83 1002.46 1003.10 1003.51 1004.01 1004.69 1005.14 1005.73 1006.24 1006.62 1007.02 1007.38 1007.77 1008.11 1008.54 1008.99
1002.16 1001.95 1001.38 1000.88 1000.27 999.23 998.06 998.05 997.02 997.07 997.72 998.52 999.79 1000.07 1000.03 999.94 1000.00 999.98 999.57 999.20 998.53 998.69 998.81 998.71 998.83 998.83 998.77 999.15 999.35 999.13 999.57 999.67 999.63 999.90 999.99 1000.35 1000.94 1001.65 1002.45 1003.31 1003.87 1004.23 1004.49 1004.98 1005.49 1005.97 1006.38 1006.76 1007.12 1007.52 1007.85 1008.20 1008.57 1008.92
1002.36 1002.03 1001.55 1001.08 1000.62 999.44 997.96 997.51 997.58 997.42 998.07 998.83 999.50 999.97 999.77 1000.02 1000.17 999.86 999.45 999.10 998.77 998.76 998.73 999.04 998.82 998.89 999.00 999.29 999.47 999.87 1000.04 1000.09 1000.05 1000.49 1001.04 1001.46 1002.05 1002.62 1003.02 1003.43 1003.80 1004.04 1004.41 1004.95 1005.52 1006.10 1006.52 1006.89 1007.22 1007.56 1007.84 1008.16 1008.57 1009.11
1002.47 1001.95 1001.38 1001.04 1000.86 1000.62 999.13 998.27 998.18 998.14 998.42 998.72 999.02 999.25 999.49 999.74 999.53 999.33 999.26 999.09 998.79 998.59 998.72 998.84 998.96 998.89 998.83 998.86 999.15 999.36 999.81 999.79 1000.14 1000.75 1001.44 1001.82 1002.05 1002.29 1002.87 1003.23 1003.66 1004.06 1004.62 1005.23 1005.76 1006.28 1006.56 1006.72 1007.05 1007.53 1007.93 1008.32 1008.74 1009.28
1001.72 1001.20 1001.07 1000.47 1000.41 1000.08 999.19 998.72 998.34 998.39 998.40 998.51 998.75 999.11 999.19 999.43 999.48 999.55 999.54 999.26 998.94 998.81 998.91 999.01 998.88 998.84 998.64 998.61 998.52 998.83 999.23 999.77 1000.43 1001.01 1001.57 1002.01 1002.17 1002.45 1003.01 1003.47 1003.92 1004.31 1004.81 1005.28 1005.78 1006.12 1006.41 1006.73 1007.14 1007.58 1008.05 1008.46 1008.91 1009.46
1001.32 1000.85 1000.63 1000.21 999.60 999.62 999.32 998.82 998.48 998.45 998.49 998.63 998.54 998.82 999.14 999.24 999.54 999.82 999.88 999.42 999.49 999.46 999.16 998.77 998.87 998.58 998.26 998.31 998.39 998.68 999.17 999.64 1000.20 1000.74 1001.26 1001.96 1002.40 1002.68 1003.23 1003.62 1004.00 1004.44 1004.87 1005.28 1005.59 1005.94 1006.18 1006.69 1007.11 1007.51 1007.99 1008.60 1008.91 1009.38
1001.11 1001.00 1000.81 1000.22 1000.02 999.68 999.56 998.67 998.54 998.80 998.98 998.64 998.66 998.79 998.98 999.27 999.37 999.32 999.25 999.38 999.30 998.94 998.64 998.49 998.47 998.32 998.41 998.39 998.48 998.67 999.09 999.59 1000.06 1000.64 1001.06 1001.64 1002.31 1002.79 1003.21 1003.55 1003.91 1004.40 1004.78 1005.05 1005.45 1005.91 1006.29 1006.59 1007.01 1007.69 1008.27 1008.83 1009.06 1009.60
1001.17 1001.08 1000.80 1000.51 1000.36 999.95 999.45 998.47 998.70 998.62 998.81 998.62 998.42 998.58 998.55 998.76 998.58 998.44 999.02 998.82 998.57 998.05 998.04 998.10 998.03 997.71 998.03 998.22 998.46 998.82 999.17 999.74 1000.33 1000.86 1001.20 1001.62 1002.12 1002.52 1002.91 1003.32 1003.63 1004.07 1004.56 1004.84 1005.11 1005.55 1006.04 1006.49 1007.24 1007.79 1008.43 1008.93 1009.37 1009.82
1001.11 1001.15 1000.73 1000.36 1000.12 999.69 999.21 998.96 998.64 998.52 998.47 998.58 998.40 998.24 998.12 998.27 998.44 998.71 998.82 998.41 998.01 997.67 998.13 998.32 998.30 998.29 998.36 998.62 998.87 999.12 999.37 999.66 1000.23 1000.71 1001.08 1001.55 1002.04 1002.45 1002.67 1003.04 1003.43 1003.77 1004.05 1004.47 1004.91 1005.42 1005.90 1006.52 1007.11 1007.78 1008.42 1008.91 1009.24 1009.58
1001.48 1000.98 1000.79 1000.14 999.61 999.56 999.27 998.81 998.47 998.44 998.50 998.39 998.34 998.21 997.96 998.28 998.85 999.11 999.02 998.80 999.24 999.39 999.42 999.37 999.41 999.40 999.37 999.25 999.19 999.26 999.17 999.55 1000.10 1000.48 1000.90 1001.17 1001.56 1002.11 1002.57 1002.86 1003.22 1003.46 1003.79 1004.47 1005.10 1005.45 1005.95 1006.43 1006.94 1007.50 1008.10 1008.50 1008.83 1009.13
1001.01 1000.03 999.93 999.27 999.02 999.02 998.71 998.65 998.64 998.67 998.54 998.57 998.53 998.29 998.38 998.71 999.24 999.39 999.81 1000.39 1000.59 1000.66 1000.71 1000.79 1000.74 1000.48 1000.39 1000.44 1000.15 999.88 999.52 999.30 999.68 1000.17 1000.40 1000.70 1001.07 1001.52 1002.15 1002.69 1003.19 1003.70 1003.64 1003.98 1004.62 1005.27 1005.81 1006.24 1006.72 1007.21 1007.66 1008.03 1008.36 1008.64
1000.25 999.27 999.03 998.73 998.75 998.74 998.89 998.86 998.74 998.87 999.05 999.05 998.80 998.92 999.19 999.59 999.77 1000.48 1001.09 1001.43 1001.50 1001.66 1001.57 1001.49 1001.43 1001.45 1001.43 1001.26 1001.03 1000.72 1000.10 999.46 999.61 999.76 999.82 1000.14 1000.53 1000.92 1001.42 1002.05 1002.58 1003.08 1003.54 1004.13 1004.62 1005.07 1005.60 1005.96 1006.46 1006.90 1007.28 1007.64 1007.91 1008.17
999.49 998.55 998.79 999.05 999.28 999.28 999.50 999.39 999.34 999.35 999.18 999.12 999.34 999.60 999.78 999.99 1000.76 1001.31 1001.65 1002.00 1002.05 1002.05 1002.03 1001.92 1001.86 1001.88 1001.80 1001.73 1001.54 1001.32 1000.98 1000.68 1000.24 1000.11 1000.35 1000.71 1000.78 1000.83 1001.24 1001.74 1002.12 1002.60 1003.22 1003.92 1004.51 1005.00 1005.38 1005.74 1006.18 1006.58 1006.97 1007.32 1007.68 1007.94
999.26 998.87 999.13 999.65 1000.06 999.98 1000.00 999.93 999.86 999.73 999.91 999.96 1000.34 1000.46 1000.62 1001.05 1001.38 1001.52 1001.83 1001.91 1002.01 1002.36 1002.53 1002.46 1002.38 1002.33 1002.26 1001.95 1001.67 1001.49 1001.37 1001.31 1001.16 1000.72 1000.65 1001.05 1001.38 1001.62 1001.46 1001.77 1002.21 1002.65 1003.19 1003.74 1004.39 1004.86 1005.26 1005.63 1006.02 1006.45 1006.89 1007.21 1007.45 1007.71
999.43 999.34 999.86 1000.36 1000.46 1000.47 1000.37 1000.19 1000.46 1000.71 1000.77 1001.03 1001.26 1001.37 1001.45 1001.57 1001.56 1001.48 1002.00 1002.11 1002.36 1002.72 1002.59 1002.72 1002.82 1002.88 1002.95 1002.85 1002.61 1002.02 1001.53 1001.33 1001.25 1001.26 1001.08 1000.95 1001.04 1001.10 1001.16 1001.60 1002.18 1002.63 1003.15 1003.66 1004.38 1005.01 1005.52 1006.00 1006.41 1006.81 1007.06 1007.17 1007.42 1007.79
999.85 999.98 1000.30 1000.51 1000.72 1000.73 1000.79 1000.91 1001.02 1001.19 1001.39 1001.74 1001.86 1002.31 1002.42 1002.33 1001.93 1001.50 1001.73 1001.95 1002.11 1002.33 1002.61 1003.12 1003.07 1003.11 1003.10 1002.94 1002.74 1002.51 1001.96 1001.38 1001.10 1001.05 1001.06 1001.10 1001.19 1001.09 1001.07 1001.26 1001.57 1002.24 1002.90 1003.54 1004.23 1004.82 1005.33 1005.85 1006.32 1006.90 1007.27 1007.41 1007.49 1007.80
1000.58 1000.58 1000.87 1001.03 1001.15 1001.27 1001.13 1001.42 1001.56 1001.83 1001.92 1002.23 1002.48 1002.44 1002.58 1002.50 1002.77 1002.19 1002.64 1002.29 1002.28 1002.95 1002.98 1003.18 1003.41 1003.46 1003.16 1003.07 1003.01 1002.85 1002.62 1001.94 1001.29 1001.02 1000.87 1000.88 1000.84 1000.87 1001.02 1001.12 1001.41 1001.90 1002.50 1003.12 1003.76 1004.33 1004.94 1005.52 1006.19 1006.52 1006.72 1006.85 1006.96 1006.99
1001.36 1001.46 1001.53 1001.64 1001.63 1001.60 1001.96 1002.07 1002.18 1002.40 1002.60 1002.77 1002.78 1002.73 1002.73 1002.89 1003.14 1003.07 1003.25 1003.31 1003.55 1003.66 1004.01 1003.95 1003.88 1003.74 1003.51 1003.44 1003.29 1003.10 1002.76 1002.43 1001.84 1001.05 1000.71 1000.66 1000.53 1000.52 1000.77 1001.06 1001.33 1001.70 1002.25 1002.80 1003.39 1003.91 1004.40 1005.02 1005.67 1005.96 1006.02 1006.15 1006.51 1006.91
Thickness
5337 5341 5347 5353 5359 5367 5376 5382 5386 5391 5397 5397 5396 5395 5394 5394 5392 5390 5386 5387 5383 5373 5385 5390 5403 5405 5413 5421 5443 5463 5495 5506 5516 5529 5529 5522 5526 5539 5543 5561 5568 5553 5549 5550 5542 5557 5564 5613 5613 5594 5613 5621 5621 5619
5334 5337 5341 5348 5353 5360 5369 5377 5384 5388 5395 5395 5392 5391 5391 5390 5386 5382 5376 5380 5378 5371 5372 5374 5382 5391 5405 5418 5421 5434 5459 5483 5516 5528 5517 5523 5523 5536 5549 5550 5566 5559 5571 5560 5564 5566 5595 5612 5611 5607 5611 5611 5613 5612
5330 5333 5336 5341 5348 5355 5362 5371 5380 5391 5392 5390 5387 5385 5386 5383 5380 5379 5375 5372 5367 5364 5366 5370 5368 5382 5391 5401 5410 5421 5441 5470 5491 5507 5516 5517 5527 5534 5542 5547 5562 5568 5578 5555 5564 5579 5587 5596 5597 5600 5605 5602 5602 5600
5327 5330 5334 5336 5341 5348 5355 5363 5370 5380 5384 5382 5379 5377 5377 5377 5374 5369 5367 5366 5361 5359 5357 5372 5373 5374 5387 5391 5406 5421 5441 5448 5472 5490 5498 5502 5512 5526 5538 5556 5552 5563 5563 5560 5569 5583 5582 5581 5587 5588 5587 5584 5584 5582
5322 5327 5332 5334 5336 5341 5347 5355 5360 5366 5371 5373 5372 5372 5370 5366 5363 5359 5357 5357 5360 5359 5364 5372 5374 5375 5381 5392 5399 5421 5430 5441 5455 5474 5474 5489 5502 5512 5512 5526 5536 5560 5555 5553 5557 5584 5576 5567 5573 5574 5571 5569 5569 5569
5319 5323 5327 5331 5333 5336 5341 5347 5352 5358 5363 5363 5368 5370 5367 5362 5355 5350 5345 5350 5356 5357 5353 5366 5374 5378 5374 5385 5396 5418 5440 5450 5460 5461 5475 5486 5501 5502 5498 5503 5531 5551 5556 5563 5564 5571 5567 5563 5560 5564 5562 5557 5554 5554
5317 5320 5323 5327 5331 5333 5336 5341 5346 5347 5353 5357 5357 5363 5364 5359 5353 5350 5353 5353 5354 5352 5354 5364 5370 5371 5377 5386 5397 5411 5431 5441 5455 5460 5468 5478 5479 5487 5487 5497 5523 5535 5545 5549 5554 5559 5546 5553 5549 5547 5545 5542 5540 5537
5316 5318 5319 5323 5328 5332 5334 5337 5341 5342 5344 5348 5349 5351 5352 5352 5348 5346 5348 5353 5357 5357 5359 5371 5374 5374 5382 5393 5403 5400 5419 5420 5432 5439 5449 5465 5469 5468 5474 5504 5526 5529 5531 5534 5535 5541 5541 5539 5535 5529 5526 5527 5521 5516
5313 5317 5319 5321 5325 5331 5334 5338 5341 5344 5343 5341 5347 5347 5345 5344 5343 5346 5348 5352 5355 5358 5365 5369 5377 5389 5386 5395 5399 5403 5412 5432 5429 5438 5443 5453 5450 5457 5487 5504 5513 5513 5512 5512 5521 5523 5518 5517 5517 5517 5517 5509 5502 5495
5312 5315 5319 5322 5324 5328 5335 5338 5344 5347 5345 5341 5342 5347 5338 5342 5345 5345 5345 5349 5351 5352 5362 5373 5380 5390 5392 5395 5404 5404 5405 5420 5427 5421 5432 5435 5444 5474 5485 5493 5493 5498 5497 5501 5498 5490 5492 5494 5493 5493 5491 5487 5485 5483
5314 5315 5317 5321 5323 5327 5332 5337 5342 5343 5341 5342 5344 5348 5346 5344 5341 5342 5351 5357 5360 5365 5364 5371 5377 5385 5383 5394 5398 5399 5404 5409 5420 5415 5428 5433 5444 5461 5478 5476 5477 5481 5484 5483 5480 5480 5478 5475 5475 5473 5470 5470 5469 5466
5314 5316 5317 5319 5323 5326 5330 5334 5336 5343 5345 5343 5343 5351 5346 5345 5347 5364 5362 5367 5361 5370 5371 5375 5377 5379 5379 5391 5388 5396 5403 5409 5415 5412 5421 5426 5427 5450 5461 5460 5458 5458 5462 5461 5456 5451 5448 5448 5445 5447 5444 5450 5441 5432
5313 5314 5316 5319 5321 5325 5331 5335 5338 5340 5349 5349 5347 5357 5350 5353 5335 5361 5358 5373 5361 5367 5365 5365 5370 5370 5376 5385 5385 5395 5397 5397 5406 5398 5418 5431 5446 5443 5440 5437 5441 5442 5440 5434 5425 5423 5424 5424 5419 5424 5419 5417 5418 5411
5315 5314 5313 5315 5318 5322 5328 5336 5341 5343 5343 5346 5349 5325 5331 5330 5332 5337 5340 5349 5352 5361 5361 5361 5365 5370 5369 5374 5381 5381 5385 5396 5393 5396 5424 5410 5429 5425 5425 5426 5425 5419 5412 5410 5408 5408 5407 5403 5400 5400 5400 5400 5398 5396
5316 5316 5315 5312 5309 5313 5325 5335 5343 5344 5350 5338 5336 5320 5329 5327 5327 5332 5328 5334 5348 5359 5357 5364 5367 5371 5369 5366 5377 5377 5372 5382 5395 5388 5397 5408 5412 5409 5405 5402 5393 5395 5393 5390 5393 5393 5391 5389 5388 5384 5384 5385 5384 5382
5318 5320 5315 5312 5311 5313 5325 5336 5347 5349 5344 5332 5329 5334 5328 5322 5321 5323 5327 5336 5353 5344 5346 5354 5364 5357 5369 5370 5377 5372 5386 5381 5385 5385 5391 5394 5390 5387 5382 5382 5378 5380 5382 5383 5382 5379 5379 5379 5377 5375 5373 5372 5371 5370
5323 5319 5316 5314 5315 5321 5332 5334 5347 5350 5339 5341 5322 5324 5326 5324 5325 5332 5330 5338 5348 5337 5335 5344 5354 5364 5352 5361 5371 5376 5360 5372 5376 5374 5371 5377 5376 5370 5368 5363 5362 5365 5369 5369 5369 5367 5367 5365 5364 5364 5364 5362 5361 5359
5321 5318 5316 5314 5314 5322 5335 5338 5337 5344 5341 5328 5322 5319 5329 5332 5326 5330 5333 5337 5340 5335 5339 5344 5348 5357 5338 5344 5333 5341 5350 5353 5359 5363 5353 5355 5353 5352 5355 5356 5359 5360 5362 5360 5358 5357 5356 5354 5355 5354 5354 5353 5351 5349
5318 5317 5317 5315 5312 5309 5320 5329 5330 5330 5326 5324 5324 5327 5323 5321 5325 5331 5333 5336 5342 5347 5343 5339 5349 5347 5343 5345 5340 5340 5342 5345 5356 5352 5342 5345 5349 5351 5349 5350 5350 5350 5349 5347 5345 5344 5344 5347 5346 5344 5343 5343 5342 5339
5320 5320 5318 5319 5316 5316 5321 5320 5327 5326 5323 5323 5327 5322 5320 5318 5324 5320 5323 5331 5338 5339 5337 5337 5337 5337 5338 5340 5347 5348 5345 5346 5343 5341 5338 5336 5338 5339 5336 5336 5337 5337 5336 5336 5333 5332 5336 5336 5337 5336 5335 5335 5334 5331
5318 5319 5318 5319 5322 5319 5318 5315 5315 5319 5320 5317 5322 5318 5315 5319 5313 5312 5314 5323 5322 5322 5327 5329 5330 5334 5345 5341 5346 5344 5342 5342 5340 5336 5335 5329 5327 5328 5326 5326 5327 5326 5327 5326 5328 5328 5330 5329 5328 5329 5329 5326 5325 5324
5313 5311 5310 5314 5314 5314 5309 5318 5313 5309 5309 5314 5315 5316 5312 5302 5304 5308 5316 5311 5316 5319 5324 5325 5330 5338 5339 5343 5338 5342 5339 5339 5335 5329 5329 5327 5323 5322 5320 5320 5321 5319 5320 5322 5323 5324 5323 5324 5323 5319 5317 5314 5317 5315
5303 5303 5304 5307 5306 5305 5300 5318 5312 5311 5305 5308 5311 5312 5310 5308 5310 5318 5309 5317 5314 5318 5327 5333 5337 5343 5337 5340 5339 5336 5335 5331 5328 5324 5323 5323 5319 5317 5317 5317 5318 5318 5318 5319 5321 5320 5320 5320 5315 5315 5310 5308 5308 5306
5293 5292 5291 5297 5302 5298 5309 5302 5311 5313 5309 5305 5308 5311 5316 5306 5311 5305 5312 5322 5316 5320 5323 5325 5325 5326 5329 5330 5329 5328 5328 5328 5323 5321 5321 5319 5318 5316 5316 5316 5315 5316 5317 5317 5318 5318 5316 5313 5312 5310 5306 5303 5307 5306
5276 5278 5282 5280 5298 5295 5296 5305 5310 5312 5296 5302 5306 5301 5305 5305 5292 5296 5308 5307 5302 5303 5305 5307 5307 5309 5309 5313 5317 5321 5326 5323 5319 5318 5318 5319 5317 5314 5313 5312 5312 5313 5312 5310 5310 5310 5310 5309 5308 5307 5305 5305 5304 5303
5266 5281 5281 5292 5293 5294 5304 5291 5290 5290 5301 5295 5299 5306 5299 5293 5293 5291 5297 5286 5284 5285 5286 5286 5289 5295 5300 5300 5309 5315 5319 5321 5319 5315 5316 5317 5316 5316 5313 5311 5310 5306 5309 5310 5308 5307 5304 5302 5304 5302 5301 5301 5300 5299
5263 5281 5288 5292 5295 5298 5289 5293 5302 5295 5284 5278 5290 5286 5282 5269 5270 5281 5270 5267 5269 5270 5273 5275 5278 5280 5283 5287 5292 5297 5305 5311 5314 5315 5315 5314 5313 5313 5313 5310 5306 5305 5303 5303 5302 5302 5300 5297 5296 5296 5297 5295 5294 5294
5267 5286 5274 5277 5276 5284 5270 5273 5275 5272 5284 5291 5284 5270 5267 5271 5271 5265 5260 5258 5258 5260 5262 5264 5266 5269 5270 5275 5278 5282 5288 5292 5298 5301 5302 5301 5301 5304 5304 5302 5302 5300 5298 5295 5294 5293 5294 5294 5292 5291 5290 5288 5287 5286
5259 5267 5263 5253 5250 5262 5261 5261 5265 5275 5272 5273 5259 5262 5268 5264 5259 5257 5256 5254 5252 5250 5246 5251 5253 5251 5252 5258 5263 5269 5273 5277 5282 5290 5296 5292 5288 5288 5292 5292 5292 5291 5289 5288 5285 5284 5284 5284 5282 5282 5280 5279 5279 5277
5246 5251 5243 5234 5235 5243 5250 5256 5254 5251 5252 5252 5251 5252 5249 5246 5246 5248 5246 5244 5241 5238 5238 5238 5237 5236 5236 5243 5240 5247 5259 5264 5268 5272 5279 5284 5284 5283 5286 5285 5283 5281 5280 5278 5275 5273 5271 5269 5266 5263 5262 5263 5267 5265
5230 5231 5233 5235 5233 5239 5240 5238 5238 5239 5236 5232 5232 5226 5226 5227 5234 5240 5238 5237 5236 5234 5230 5226 5225 5225 5224 5232 5235 5231 5235 5247 5253 5257 5259 5263 5266 5271 5274 5274 5275 5272 5269 5267 5264 5261 5257 5254 5254 5253 5251 5250 5253 5250
5211 5220 5217 5219 5225 5225 5229 5227 5226 5225 5225 5225 5224 5224 5227 5230 5223 5223 5225 5226 5224 5220 5220 5217 5212 5210 5214 5215 5214 5217 5218 5225 5232 5239 5244 5248 5254 5258 5259 5261 5262 5261 5260 5258 5256 5254 5251 5247 5246 5246 5246 5249 5250 5250
5193 5197 5200 5206 5211 5217 5214 5212 5214 5215 5215 5211 5214 5215 5216 5216 5208 5211 5211 5209 5206 5203 5203 5202 5201 5201 5203 5202 5200 5202 5205 5206 5210 5218 5224 5230 5237 5242 5244 5245 5247 5247 5246 5246 5244 5243 5242 5238 5236 5236 5242 5242 5240 5238